Location: Allen Lane School
(37.8198°N, 89.7382°W)
Time: 04:18:32
(UTC+00:00)

Meteor 1-14 Rocket - Pass Details

Date: 27 June 2022
Orbit: 833 x 919 km, 81.3° (Epoch: 14 August)

Event Time Altitude Azimuth Distance (km) Brightness Sun altitude
Rises 09:52:22 0° 168° (SSE) 3,530 7.2 -8.4°
Reaches altitude 10° 09:54:57 10° 162° (SSE) 2,584 6.5 -8.0°
Maximum altitude 10:00:28 43° 92° (E) 1,247 5.6 -7.1°
Drops below altitude 10° 10:05:54 10° 23° (NNE) 2,551 7.8 -6.3°
Sets 10:08:26 0° 17° (NNE) 3,481 8.4 -5.9°
